Simultaneous Nadir Overpasses (SNOs) Predictions

Prediction of SNOs between METOP-A and NOAA-19 Satellite Orbit:

Table of predicted SNOs for the next 14.0 days since TLE Epoch: 12/31/2016
Index Date (METOP-A) Time (METOP-A) Lat,Lon (METOP-A) SZA (METOP-A ) Date (NOAA-19) Time (NOAA-19) Lat,Lon (NOAA-19) SZA (NOAA-19 ) Distance(km) Time Diff (sec)
1 01/09/2017 11:16:36 -76.77,-166.41 81.28 01/09/2017 11:15:29 -76.78,-166.37 81.26 2.07 67
2 01/09/2017 12:07:16 76.76, 0.91 98.72 01/09/2017 12:06:25 76.78, 0.90 98.74 2.20 51
3 01/09/2017 12:57:58 -76.75, 168.18 81.30 01/09/2017 12:57:30 -76.75, 168.27 81.30 2.08 28
4 01/09/2017 13:48:38 76.75, -24.50 98.69 01/09/2017 13:48:26 76.75, -24.46 98.70 1.04 12
5 01/09/2017 14:39:20 -76.73, 142.78 81.33 01/09/2017 14:39:32 -76.76, 142.72 81.30 3.34 12
6
